sat.trackr.live / text

‹ back to catalog

STARLINK-33841

NORAD 63771 · 2025-089W

PAYLOAD ACTIVE UNKNOWN

§ Identity

Operator
Country
US
Launch date
2025-04-29
Launch site
AFETR
Launch vehicle
Mass (kg)
RCS (m²)

Purposes: comms

External: N2YO · Heavens-Above · Gunter

§ Orbital elements

Epoch: 2026-09-20T15:16:15.223584Z

Period
94.27 min
Inclination
42.9993°
Eccentricity
0.0000388
Mean motion
15.27588289 rev/d
Perigee alt
482.8 km
Apogee alt
483.3 km
Semi-major
6,861.2 km
B*
4.9028e-4
RAAN
24.1439°
Arg perigee
241.9219°
Mean anomaly
118.1593°
Rev number
7,872

§ Raw data

STARLINK-338411 63771U 25089W   26263.63628731  .00013257  00000+0  49028-3 0  99962 63771  42.9993  24.1439 0000388 241.9219 118.1593 15.27588289 78729

JSON: /api/v1/satellites/63771 · /tle

For live sub-satellite position, see the globe view (requires WebGL).

§ Visibility from observer

Set your observer location to see the next 7 days of passes ≥ 10°. The values pass through the URL so the page stays shareable.

No JS? Fill the form by hand. The geolocation button needs JavaScript.